User: anonymous   Login
Location: Unspecified
(0.0000°N, 0.0000°E)
Time: 01:37:16
(UTC+00:00)
Language:

SAR-Lupe-1 - Orbit

View from above orbital plane
View from above orbital plane
View from above satellite
View from above satellite

Ground track
Ground track

The orbit data is extracted from the following two-line orbital elements,

1 29658U 06060A   19182.01231867 0.00000000  00000-0  00000-0 0    04
2 29658  98.1348 308.7516 0004000  67.3057 292.6941 15.27506475    02
Epoch (UTC): 01 July 2019 00:17:44
Eccentricity: 0.0004000
inclination: 98.1348°
perigee height: 480 km
apogee height: 486 km
right ascension of ascending node: 308.7516°
argument of perigee: 67.3057°
revolutions per day: 15.27506475
mean anomaly at epoch: 292.6941°
orbit number at epoch: 0

The dashed part of the orbit path shows where the satellite is in the earth's shadow,  

DLR